H1 CPF 2 NER 2024 4 10 9 101 01 glonass129 H2 1106402 9129 37868 2024 4 10 0 0 0 2024 4 13 23 45 0 900 1 1 0 0 0 1 H9 10 0 60410 0.00000 0 -3576864.783 -25273816.584 663510.093 10 0 60410 900.00000 0 -3685445.935 -24975644.723 3862505.556 10 0 60410 1800.00000 0 -3674091.635 -24294497.531 6986748.503 10 0 60410 2700.00000 0 -3494613.023 -23259861.146 9975849.338 10 0 60410 3600.00000 0 -3105955.074 -21912360.353 12772089.787 10 0 60410 4500.00000 0 -2476162.335 -20302068.817 15321518.619 10 0 60410 5400.00000 0 -1583962.259 -18486450.090 17574972.047 10 0 60410 6300.00000 0 -419900.777 -16528014.996 19489001.067 10 0 60410 7200.00000 0 1013016.786 -14491792.005 21026689.927 10 0 60410 8100.00000 0 2699206.154 -12442714.195 22158351.925 10 0 60410 9000.00000 0 4610911.630 -10443029.379 22862090.889 10 0 60410 9900.00000 0 6709125.135 -8549838.703 23124218.789 10 0 60410 10800.00000 0 8944980.705 -6812863.722 22939522.196 10 0 60410 11700.00000 0 11261569.241 -5272532.756 22311372.506 10 0 60410 12600.00000 0 13596101.136 -3958464.629 21251677.200 10 0 60410 13500.00000 0 15882330.128 -2888412.092 19780671.762 10 0 60410 14400.00000 0 18053140.538 -2067708.817 17926554.427 10 0 60410 15300.00000 0 20043192.674 -1489243.660 15724968.522 10 0 60410 16200.00000 0 21791517.929 -1133964.391 13218339.930 10 0 60410 17100.00000 0 23243956.098 -971891.223 10455079.988 10 0 60410 18000.00000 0 24355332.934 -963599.189 7488667.045 10 0 60410 18900.00000 0 25091285.741 -1062108.324 4376622.695 10 0 60410 19800.00000 0 25429658.676 -1215102.903 1179401.334 10 0 60410 20700.00000 0 25361406.845 -1367386.290 -2040785.820 10 0 60410 21600.00000 0 24890968.658 -1463467.054 -5221189.130 10 0 60410 22500.00000 0 24036088.302 -1450165.564 -8299756.734 10 0 60410 23400.00000 0 22827093.747 -1279128.579 -11216362.880 10 0 60410 24300.00000 0 21305659.220 -909142.648 -13914002.534 10 0 60410 25200.00000 0 19523103.531 -308145.313 -16339926.839 10 0 60410 26100.00000 0 17538295.976 545154.118 -18446695.023 10 0 60410 27000.00000 0 15415258.702 1660115.720 -20193120.253 10 0 60410 27900.00000 0 13220567.665 3033523.493 -21545089.291 10 0 60410 28800.00000 0 11020663.038 4649482.450 -22476238.673 10 0 60410 29700.00000 0 8879183.652 6479863.804 -22968473.483 10 0 60410 30600.00000 0 6854438.702 8485280.032 -23012318.385 10 0 60410 31500.00000 0 4997123.695 10616548.633 -22607094.320 10 0 60410 32400.00000 0 3348376.589 12816582.418 -21760918.147 10 0 60410 33300.00000 0 1938255.028 15022626.000 -20490526.309 10 0 60410 34200.00000 0 784697.111 17168743.470 -18820927.333 10 0 60410 35100.00000 0 -106992.921 19188451.899 -16784891.469 10 0 60410 36000.00000 0 -744115.327 21017389.493 -14422289.074 10 0 60410 36900.00000 0 -1146006.319 22595906.172 -11779292.269 10 0 60410 37800.00000 0 -1342957.682 23871468.225 -8907457.046 10 0 60410 38700.00000 0 -1374673.407 24800777.036 -5862705.065 10 0 60410 39600.00000 0 -1288331.353 25351514.436 -2704226.204 10 0 60410 40500.00000 0 -1136334.148 25503643.420 506675.946 10 0 60410 41400.00000 0 -973845.918 25250211.902 3707772.731 10 0 60410 42300.00000 0 -856219.735 24597628.202 6837110.070 10 0 60410 43200.00000 0 -836424.466 23565398.973 9834196.274 10 0 60410 44100.00000 0 -962578.975 22185342.452 12641155.944 10 0 60410 45000.00000 0 -1275696.538 20500311.347 15203828.951 10 0 60410 45900.00000 0 -1807733.046 18562479.371 17472794.991 10 0 60410 46800.00000 0 -2580019.694 16431262.799 19404305.904 10 0 60410 47700.00000 0 -3602144.864 14170962.802 20961109.815 10 0 60410 48600.00000 0 -4871331.441 11848225.067 22113153.224 10 0 60410 49500.00000 0 -6372335.765 9529420.152 22838149.268 10 0 60410 50400.00000 0 -8077873.322 7278050.988 23122002.506 10 0 60410 51300.00000 0 -9949555.101 5152292.576 22959082.845 10 0 60410 52200.00000 0 -11939298.019 3202763.669 22352343.408 10 0 60410 53100.00000 0 -13991153.511 1470621.060 21313279.514 10 0 60410 54000.00000 0 -16043481.310 -13945.681 19861728.284 10 0 60410 54900.00000 0 -18031380.940 -1232757.031 18025510.914 10 0 60410 55800.00000 0 -19889282.297 -2180180.335 15839922.267 10 0 60410 56700.00000 0 -21553589.343 -2863137.527 13347075.172 10 0 60410 57600.00000 0 -22965267.731 -3300582.214 10595109.595 10 0 60410 58500.00000 0 -24072268.379 -3522466.626 7637279.789 10 0 60410 59400.00000 0 -24831684.790 -3568240.437 4530935.262 10 0 60410 60300.00000 0 -25211552.025 -3484943.564 1336414.105 10 0 60410 61200.00000 0 -25192209.491 -3324972.802 -1884130.285 10 0 60410 62100.00000 0 -24767167.572 -3143616.794 -5067946.105 10 0 60410 63000.00000 0 -23943438.825 -2996464.499 -8152919.044 10 0 60410 63900.00000 0 -22741317.277 -2936798.547 -11078801.599 10 0 60410 64800.00000 0 -21193612.993 -3013086.184 -13788409.906 10 0 60410 65700.00000 0 -19344372.790 -3266676.845 -16228762.625 10 0 60410 66600.00000 0 -17247140.320 -3729806.813 -18352137.413 10 0 60410 67500.00000 0 -14962828.881 -4423998.299 -20117022.384 10 0 60410 68400.00000 0 -12557297.154 -5358923.238 -21488942.280 10 0 60410 69300.00000 0 -10098730.988 -6531781.866 -22441141.946 10 0 60410 70200.00000 0 -7654942.537 -7927223.719 -22955113.026 10 0 60410 71100.00000 0 -5290701.373 -9517815.117 -23020953.350 10 0 60410 72000.00000 0 -3065210.501 -11265033.449 -22637552.259 10 0 60410 72900.00000 0 -1029833.444 -13120745.869 -21812598.943 10 0 60410 73800.00000 0 773832.646 -15029109.247 -20562414.681 10 0 60410 74700.00000 0 2315458.195 -16928810.249 -18911613.616 10 0 60410 75600.00000 0 3576995.699 -18755550.196 -16892600.195 10 0 60410 76500.00000 0 4553167.553 -20444669.233 -14544914.704 10 0 60410 77400.00000 0 5251409.885 -21933798.833 -11914441.318 10 0 60410 78300.00000 0 5691278.209 -23165430.993 -9052495.672 10 0 60410 79200.00000 0 5903343.484 -24089296.558 -6014811.137 10 0 60410 80100.00000 0 5927628.341 -24664453.641 -2860444.746 10 0 60410 81000.00000 0 5811652.312 -24860999.921 349375.052 10 0 60410 81900.00000 0 5608170.719 -24661338.741 3552435.950 10 0 60410 82800.00000 0 5372704.062 -24060947.944 6686741.488 10 0 60410 83700.00000 0 5160962.765 -23068621.311 9691700.038 10 0 60410 84600.00000 0 5026275.719 -21706174.320 12509280.952 10 0 60410 85500.00000 0 5017130.192 -20007627.987 15085116.778 10 0 60411 0.00000 0 5174925.366 -18017905.888 17369531.764 10 0 60411 900.00000 0 5532032.631 -15791097.709 19318479.919 10 0 60411 1800.00000 0 6110242.451 -13388363.658 20894373.597 10 0 60411 2700.00000 0 6919662.138 -10875561.993 22066792.707 10 0 60411 3600.00000 0 7958110.060 -8320698.706 22813059.549 10 0 60411 4500.00000 0 9211031.923 -5791301.783 23118670.793 10 0 60411 5400.00000 0 10651943.685 -3351826.403 22977578.895 10 0 60411 6300.00000 0 12243384.428 -1061196.046 22392317.661 10 0 60411 7200.00000 0 13938341.933 1029420.767 21373968.973 10 0 60411 8100.00000 0 15682094.362 2878507.632 19941970.136 10 0 60411 9000.00000 0 17414394.252 4455693.598 18123763.691 10 0 60411 9900.00000 0 19071906.508 5742780.896 15954294.289 10 0 60411 10800.00000 0 20590800.876 6734263.896 13475359.824 10 0 60411 11700.00000 0 21909392.151 7437316.697 10734826.887 10 0 60411 12600.00000 0 22970718.204 7871248.589 7785723.485 10 0 60411 13500.00000 0 23724947.461 8066448.795 4685224.764 10 0 60411 14400.00000 0 24131513.514 8062863.624 1493550.130 10 0 60411 15300.00000 0 24160885.009 7908069.284 -1727207.302 10 0 60411 16200.00000 0 23795893.714 7655021.460 -4914296.024 10 0 60411 17100.00000 0 23032561.892 7359577.183 -8005541.680 10 0 60411 18000.00000 0 21880391.174 7077895.067 -10940577.270 10 0 60411 18900.00000 0 20362098.198 6863825.855 -13662042.150 10 0 60411 19800.00000 0 18512806.100 6766406.200 -16116724.294 10 0 60411 20700.00000 0 16378724.602 6827564.542 -18256621.334 10 0 60411 21600.00000 0 14015373.722 7080138.962 -20039897.622 10 0 60411 22500.00000 0 11485425.952 7546293.445 -21431716.955 10 0 60411 23400.00000 0 8856258.366 8236401.647 -22404933.361 10 0 60411 24300.00000 0 6197318.494 9148446.855 -22940625.713 10 0 60411 25200.00000 0 3577415.652 10267964.321 -23028465.459 10 0 60411 26100.00000 0 1062052.312 11568528.536 -22666910.526 10 0 60411 27000.00000 0 -1289092.064 13012764.422 -21863222.306 10 0 60411 27900.00000 0 -3424419.370 14553838.856 -20633306.428 10 0 60411 28800.00000 0 -5302319.462 16137368.389 -19001381.767 10 0 60411 29700.00000 0 -6892646.720 17703661.378 -16999485.690 10 0 60411 30600.00000 0 -8177706.891 19190198.841 -14666826.755 10 0 60411 31500.00000 0 -9152715.737 20534248.470 -12048999.187 10 0 60411 32400.00000 0 -9825713.564 21675501.132 -9197075.972 10 0 60411 33300.00000 0 -10216942.781 22558618.773 -6166599.658 10 0 60411 34200.00000 0 -10357718.215 23135586.899 -3016491.741 10 0 60411 35100.00000 0 -10288840.924 23367773.691 192097.280 10 0 60411 36000.00000 0 -10058625.063 23227610.571 3396974.307 10 0 60411 36900.00000 0 -9720622.901 22699825.352 6536103.340 10 0 60411 37800.00000 0 -9331145.067 21782178.082 9548795.601 10 0 60411 38700.00000 0 -8946680.833 20485670.463 12376867.874 10 0 60411 39600.00000 0 -8621326.636 18834221.522 14965747.910 10 0 60411 40500.00000 0 -8404330.014 16863824.024 17265507.233 10 0 60411 41400.00000 0 -8337850.730 14621217.042 19231803.333 10 0 60411 42300.00000 0 -8455031.524 12162129.534 20826715.109 10 0 60411 43200.00000 0 -8778457.948 9549166.693 22019457.490 10 0 60411 44100.00000 0 -9319070.781 6849424.947 22786963.228 10 0 60411 45000.00000 0 -10075576.118 4131932.094 23114322.036 10 0 60411 45900.00000 0 -11034378.132 1465015.962 22995069.451 10 0 60411 46800.00000 0 -12170038.481 -1086292.223 22431320.029 10 0 60411 47700.00000 0 -13446245.046 -3462714.711 21433741.804 10 0 60411 48600.00000 0 -14817251.984 -5612944.647 20021371.317 10 0 60411 49500.00000 0 -16229733.752 -7495533.551 18221271.001 10 0 60411 50400.00000 0 -17624978.385 -9080371.164 16068033.322 10 0 60411 51300.00000 0 -18941330.800 -10349696.114 13603138.806 10 0 60411 52200.00000 0 -20116785.771 -11298594.601 10874177.831 10 0 60411 53100.00000 0 -21091622.938 -11934965.092 7933949.021 10 0 60411 54000.00000 0 -21810973.410 -12278949.079 4839449.795 10 0 60411 54900.00000 0 -22227209.239 -12361850.409 1650777.382 10 0 60411 55800.00000 0 -22302053.452 -12224587.427 -1570038.920 10 0 60411 56700.00000 0 -22008319.278 -11915742.565 -4760251.408 10 0 60411 57600.00000 0 -21331202.308 -11489291.673 -7857629.104 10 0 60411 58500.00000 0 -20269067.949 -11002109.801 -10801688.793 10 0 60411 59400.00000 0 -18833698.026 -10511360.389 -13534896.127 10 0 60411 60300.00000 0 -17049983.524 -10071880.391 -16003811.199 10 0 60411 61200.00000 0 -14955074.524 -9733674.454 -18160154.049 10 0 60411 62100.00000 0 -12597021.925 -9539626.798 -19961767.251 10 0 60411 63000.00000 0 -10032967.642 -9523530.090 -21373455.090 10 0 60411 63900.00000 0 -7326959.597 -9708516.792 -22367681.594 10 0 60411 64800.00000 0 -4547483.952 -10105960.892 -22925113.034 10 0 60411 65700.00000 0 -1764819.055 -10714897.312 -23034994.006 10 0 60411 66600.00000 0 951676.959 -11521983.741 -22695349.951 10 0 60411 67500.00000 0 3536230.564 -12502006.022 -21913012.870 10 0 60411 68400.00000 0 5929157.410 -13618904.751 -20703470.695 10 0 60411 69300.00000 0 8079102.489 -14827278.360 -19090544.635 10 0 60411 70200.00000 0 9944923.188 -16074297.620 -17105902.263 10 0 60411 71100.00000 0 11497138.190 -17301949.198 -14788417.462 10 0 60411 72000.00000 0 12718883.925 -18449512.180 -12183391.350 10 0 60411 72900.00000 0 13606341.562 -19456162.030 -9341650.961 10 0 60411 73800.00000 0 14168620.011 -20263591.584 -6318544.626 10 0 60411 74700.00000 0 14427103.378 -20818538.527 -3172854.866 10 0 60411 75600.00000 0 14414293.733 -21075113.366 34349.149 10 0 60411 76500.00000 0 14172200.874 -20996830.869 3240896.776 10 0 60411 77400.00000 0 13750349.312 -20558260.892 6384715.506 10 0 60411 78300.00000 0 13203488.021 -19746230.826 9405022.134 10 0 60411 79200.00000 0 12589100.190 -18560530.793 12243483.230 10 0 60411 80100.00000 0 11964817.726 -17014093.470 14845323.691 10 0 60411 81000.00000 0 11385848.491 -15132641.998 17160363.621 10 0 60411 81900.00000 0 10902522.993 -12953821.055 19143965.423 10 0 60411 82800.00000 0 10558061.874 -10525847.045 20757874.886 10 0 60411 83700.00000 0 10386656.032 -7905732.459 21970942.055 10 0 60411 84600.00000 0 10411938.323 -5157156.419 22759709.804 10 0 60411 85500.00000 0 10645909.716 -2348067.374 23108860.147 10 0 60412 0.00000 0 11088364.416 451885.199 23011510.619 10 0 60412 900.00000 0 11726838.618 3173988.150 22469355.086 10 0 60412 1800.00000 0 12537085.605 5753060.906 21492646.022 10 0 60412 2700.00000 0 13484059.959 8129910.497 20100017.297 10 0 60412 3600.00000 0 14523371.557 10253541.719 18318149.137 10 0 60412 4500.00000 0 15603151.318 12083033.316 16181279.598 10 0 60412 5400.00000 0 16666253.029 13589002.287 13730569.493 10 0 60412 6300.00000 0 17652701.087 14754594.956 11013330.559 10 0 60412 7200.00000 0 18502282.860 15575962.394 8082129.514 10 0 60412 8100.00000 0 19157177.307 16062198.906 4993783.485 10 0 60412 9000.00000 0 19564508.876 16234744.574 1808264.934 10 0 60412 9900.00000 0 19678717.741 16126275.528 -1412463.222 10 0 60412 10800.00000 0 19463644.271 15779127.579 -4605659.563 10 0 60412 11700.00000 0 18894236.953 15243319.204 -7709038.800 10 0 60412 12600.00000 0 17957808.518 14574257.556 -10662003.593 10 0 60412 13500.00000 0 16654784.048 13830225.405 -13406847.694 10 0 60412 14400.00000 0 14998906.507 13069756.848 -15889904.822 10 0 60412 15300.00000 0 13016888.583 12349014.898 -18062618.626 10 0 60412 16200.00000 0 10747523.720 11719284.212 -19882510.832 10 0 60412 17100.00000 0 8240292.677 11224687.348 -21314026.904 10 0 60412 18000.00000 0 5553523.937 10900223.210 -22329241.368 10 0 60412 18900.00000 0 2752185.479 10770212.189 -22908408.209 10 0 60412 19800.00000 0 -94598.714 10847214.670 -23040345.291 10 0 60412 20700.00000 0 -2916202.413 11131468.859 -22722645.481 10 0 60412 21600.00000 0 -5643209.142 11610871.190 -21961711.014 10 0 60412 22500.00000 0 -8210068.403 12261499.077 -20772611.451 10 0 60412 23400.00000 0 -10557584.830 13048652.346 -19178769.305 10 0 60412 24300.00000 0 -12635136.729 13928367.505 -17211480.995 10 0 60412 25200.00000 0 -14402532.420 14849338.963 -14909284.052 10 0 60412 26100.00000 0 -15831428.616 15755164.162 -12317184.558 10 0 60412 27000.00000 0 -16906254.025 16586816.319 -9485761.462 10 0 60412 27900.00000 0 -17624602.541 17285239.207 -6470166.603 10 0 60412 28800.00000 0 -17997082.880 17793953.872 -3329041.170 10 0 60412 29700.00000 0 -18046634.367 18061567.314 -123370.584 10 0 60412 30600.00000 0 -17807340.840 18044077.866 3084699.413 10 0 60412 31500.00000 0 -17322795.203 17706881.194 6233062.265 10 0 60412 32400.00000 0 -16644085.522 17026393.799 9260842.802 10 0 60412 33300.00000 0 -15827488.566 15991227.274 12109559.823 10 0 60412 34200.00000 0 -14931968.177 14602865.410 14724237.760 10 0 60412 35100.00000 0 -14016583.153 12875816.855 17054447.583 10 0 60412 36000.00000 0 -13137912.310 10837237.483 19055258.767 10 0 60412 36900.00000 0 -12347603.121 8526038.140 20688085.946 10 0 60412 37800.00000 0 -11690144.736 5991514.076 21921415.989 10 0 60412 38700.00000 0 -11200956.722 3291551.428 22731403.298 10 0 60412 39600.00000 0 -10904871.918 490483.007 23102323.257 10 0 60412 40500.00000 0 -10815075.746 -2343320.475 23026876.027 10 0 60412 41400.00000 0 -10932545.950 -5140026.939 22506335.085 10 0 60412 42300.00000 0 -11246016.599 -7830983.484 21550537.186 10 0 60412 43200.00000 0 -11732469.020 -10351314.342 20177712.878 10 0 60412 44100.00000 0 -12358130.910 -12642370.758 18414159.067 10 0 60412 45000.00000 0 -13079944.041 -14653932.654 16293757.819 10 0 60412 45900.00000 0 -13847441.363 -16346071.321 13857348.230 10 0 60412 46800.00000 0 -14604956.955 -17690595.495 11151961.008 10 0 60412 47700.00000 0 -15294077.653 -18672019.668 8229928.275 10 0 60412 48600.00000 0 -15856234.201 -19288012.762 5147883.924 10 0 60412 49500.00000 0 -16235322.874 -19549306.707 1965672.529 10 0 60412 50400.00000 0 -16380246.129 -19479067.003 -1254812.606 10 0 60412 51300.00000 0 -16247263.287 -19111750.277 -4450839.640 10 0 60412 52200.00000 0 -15802049.414 -18491495.962 -7560072.288 10 0 60412 53100.00000 0 -15021372.353 -17670119.597 -10521802.367 10 0 60412 54000.00000 0 -13894313.807 -16704792.858 -13278154.919 10 0 60412 54900.00000 0 -12422979.626 -15655509.419 -15775240.296 10 0 60412 55800.00000 0 -10622666.522 -14582445.430 -17964228.507 10 0 60412 56700.00000 0 -8521475.841 -13543328.193 -19802322.804 10 0 60412 57600.00000 0 -6159389.071 -12590926.430 -21253611.739 10 0 60412 58500.00000 0 -3586843.148 -11770770.192 -22289781.700 10 0 60412 59400.00000 0 -862865.255 -11119198.345 -22890675.155 10 0 60412 60300.00000 0 1947154.243 -10661817.150 -23044683.415 10 0 60412 61200.00000 0 4773956.571 -10412435.319 -22748966.370 10 0 60412 62100.00000 0 7547071.689 -10372520.129 -22009495.585 10 0 60412 63000.00000 0 10197525.822 -10531196.403 -20840920.884 10 0 60412 63900.00000 0 12660485.643 -10865786.749 -19266264.328 10 0 60412 64800.00000 0 14877728.593 -11342868.117 -17316449.058 10 0 60412 65700.00000 0 16799836.694 -11919797.751 -15029673.782 10 0 60412 66600.00000 0 18388023.431 -12546641.800 -12450646.738 10 0 60412 67500.00000 0 19615519.276 -13168423.018 -9629695.667 10 0 60412 68400.00000 0 20468460.449 -13727590.917 -6621772.507 10 0 60412 69300.00000 0 20946246.656 -14166608.877 -3485373.496 10 0 60412 70200.00000 0 21061356.057 -14430548.388 -281396.561 10 0 60412 71100.00000 0 20838628.398 -14469580.991 2928041.196 10 0 60412 72000.00000 0 20314049.281 -14241263.400 6080802.786 10 0 60412 72900.00000 0 19533089.002 -13712520.574 9115924.431 10 0 60412 73800.00000 0 18548667.333 -12861244.567 11974780.146 10 0 60412 74700.00000 0 17418830.537 -11677443.299 14602196.438 10 0 60412 75600.00000 0 16204238.033 -10163892.202 16947497.189 10 0 60412 76500.00000 0 14965563.272 -8336262.168 18965460.460 10 0 60412 77400.00000 0 13760916.231 -6222718.604 20617170.725 10 0 60412 78300.00000 0 12643393.495 -3863007.716 21870752.168 10 0 60412 79200.00000 0 11658856.282 -1307066.692 22701970.717 10 0 60412 80100.00000 0 10844027.290 1386786.441 23094694.665 10 0 60412 81000.00000 0 10224984.220 4154010.851 23041205.931 10 0 60412 81900.00000 0 9816111.835 6926262.316 22542356.287 10 0 60412 82800.00000 0 9619555.991 9633976.881 21607565.106 10 0 60412 83700.00000 0 9625202.878 12209014.648 20254657.642 10 0 60412 84600.00000 0 9811185.474 14587256.643 18509545.239 10 0 60412 85500.00000 0 10144897.724 16711048.869 16405751.505 10 0 60413 0.00000 0 10584475.913 18531392.921 13983791.403 10 0 60413 900.00000 0 11080687.394 20009793.167 11290411.384 10 0 60413 1800.00000 0 11579148.457 21119680.460 8377706.272 10 0 60413 2700.00000 0 12022780.052 21847354.873 5302123.748 10 0 60413 3600.00000 0 12354397.773 22192403.725 2123377.512 10 0 60413 4500.00000 0 12519326.607 22167576.431 -1096711.694 10 0 60413 5400.00000 0 12467928.666 21798119.414 -4295424.420 10 0 60413 6300.00000 0 12157934.873 21120597.575 -7410375.993 10 0 60413 7200.00000 0 11556479.223 20181251.071 -10380749.709 10 0 60413 8100.00000 0 10641746.383 19033956.517 -13148503.875 10 0 60413 9000.00000 0 9404159.677 17737879.175 -15659527.092 10 0 60413 9900.00000 0 7847056.144 16354916.451 -17864716.971 10 0 60413 10800.00000 0 5986817.507 14947042.323 -19720959.196 10 0 60413 11700.00000 0 3852449.418 13573666.735 -21191986.020 10 0 60413 12600.00000 0 1484625.406 12289123.361 -22249096.037 10 0 60413 13500.00000 0 -1065764.907 11140393.372 -22871720.312 10 0 60413 14400.00000 0 -3739502.329 10165162.382 -23047823.469 10 0 60413 15300.00000 0 -6471279.668 9390292.979 -22774132.034 10 0 60413 16200.00000 0 -9192203.589 8830776.992 -22056186.217 10 0 60413 17100.00000 0 -11832451.145 8489210.589 -20908215.093 10 0 60413 18000.00000 0 -14323969.053 8355812.663 -19352838.925 10 0 60413 18900.00000 0 -16603102.441 8408983.445 -17420605.922 10 0 60413 19800.00000 0 -18613043.299 8616377.208 -15149374.041 10 0 60413 20700.00000 0 -20305996.926 8936441.071 -12583551.561 10 0 60413 21600.00000 0 -21644977.204 9320352.351 -9773212.766 10 0 60413 22500.00000 0 -22605157.558 9714270.375 -6773107.393 10 0 60413 23400.00000 0 -23174723.556 10061805.850 -3641584.399 10 0 60413 24300.00000 0 -23355194.321 10306602.331 -439451.904 10 0 60413 25200.00000 0 -23161202.275 10394920.249 2771203.946 10 0 60413 26100.00000 0 -22619743.311 10278114.569 5928218.035 10 0 60413 27000.00000 0 -21768931.369 9914902.282 8970540.280 10 0 60413 27900.00000 0 -20656311.560 9273325.233 11839402.204 10 0 60413 28800.00000 0 -19336803.748 8332327.008 14479434.637 10 0 60413 29700.00000 0 -17870363.103 7082878.819 16839716.539 10 0 60413 30600.00000 0 -16319455.086 5528608.117 18874736.566 10 0 60413 31500.00000 0 -14746449.266 3685904.019 20545250.834 10 0 60413 32400.00000 0 -13211039.101 1583494.930 21819022.366 10 0 60413 33300.00000 0 -11767793.230 -738485.089 22671429.832 10 0 60413 34200.00000 0 -10463938.271 -3229904.059 23085935.287 10 0 60413 35100.00000 0 -9337463.491 -5832457.860 23054402.908 10 0 60413 36000.00000 0 -8415624.798 -8481841.192 22577262.873 10 0 60413 36900.00000 0 -7713909.446 -11110176.757 21663516.918 10 0 60413 37800.00000 0 -7235504.368 -13648605.062 20330584.364 10 0 60413 38700.00000 0 -6971290.826 -16029930.214 18603989.990 10 0 60413 39600.00000 0 -6900366.715 -18191214.040 16516897.585 10 0 60413 40500.00000 0 -6991076.245 -20076212.220 14109495.821 10 0 60413 41400.00000 0 -7202505.641 -21637551.563 11428245.759 10 0 60413 42300.00000 0 -7486383.771 -22838557.342 8525002.261 10 0 60413 43200.00000 0 -7789309.145 -23654653.198 5456024.330 10 0 60413 44100.00000 0 -8055210.191 -24074273.286 2280892.151 10 0 60413 45000.00000 0 -8227935.001 -24099246.297 -938648.853 10 0 60413 45900.00000 0 -8253860.239 -23744633.020 -4139894.494 10 0 60413 46800.00000 0 -8084407.144 -23038022.354 -7260414.652 10 0 60413 47700.00000 0 -7678355.725 -22018313.880 -10239287.086 10 0 60413 48600.00000 0 -7003856.219 -20734037.523 -13018306.363 10 0 60413 49500.00000 0 -6040049.473 -19241281.051 -15543142.251 10 0 60413 50400.00000 0 -4778224.494 -17601313.481 -17764422.736 10 0 60413 51300.00000 0 -3222461.355 -15878005.894 -19638718.451 10 0 60413 52200.00000 0 -1389729.880 -14135160.009 -21129407.509 10 0 60413 53100.00000 0 690561.792 -12433858.978 -22207402.442 10 0 60413 54000.00000 0 2977550.766 -10829953.639 -22851724.157 10 0 60413 54900.00000 0 5420394.120 -9371791.367 -23049911.328 10 0 60413 55800.00000 0 7960172.526 -8098283.848 -22798257.361 10 0 60413 56700.00000 0 10532142.286 -7037395.035 -22101870.891 10 0 60413 57600.00000 0 13068240.459 -6205112.080 -20974559.604 10 0 60413 58500.00000 0 15499737.235 -5604940.969 -19438540.923 10 0 60413 59400.00000 0 17759923.803 -5227945.824 -17523986.681 10 0 60413 60300.00000 0 19786722.926 -5053327.513 -15268412.255 10 0 60413 61200.00000 0 21525113.141 -5049514.146 -12715923.703 10 0 60413 62100.00000 0 22929265.945 -5175714.494 -9916339.172 10 0 60413 63000.00000 0 23964307.957 -5383865.941 -6924203.113 10 0 60413 63900.00000 0 24607636.216 -5620892.400 -3797713.778 10 0 60413 64800.00000 0 24849733.998 -5831175.030 -597585.801 10 0 60413 65700.00000 0 24694455.613 -5959130.326 2614129.428 10 0 60413 66600.00000 0 24158771.009 -5951786.346 5775242.449 10 0 60413 67500.00000 0 23271983.358 -5761248.633 8824620.507 10 0 60413 68400.00000 0 22074454.485 -5346952.650 11703355.989 10 0 60413 69300.00000 0 20615892.942 -4677609.020 14355887.025 10 0 60413 70200.00000 0 18953277.038 -3732761.012 16731050.195 10 0 60413 71100.00000 0 17148499.493 -2503889.974 18783046.831 10 0 60413 72000.00000 0 15265831.163 -995023.123 20472306.286 10 0 60413 72900.00000 0 13369308.068 777181.591 21766231.548 10 0 60413 73800.00000 0 11520148.518 2783877.702 22639814.671 10 0 60413 74700.00000 0 9774305.625 4984982.409 23076111.665 10 0 60413 75600.00000 0 8180254.758 7330601.183 23066568.673 10 0 60413 76500.00000 0 6777105.988 9762868.280 22611193.552 10 0 60413 77400.00000 0 5593118.588 12218129.733 21718569.204 10 0 60413 78300.00000 0 4644678.572 14629381.355 20405707.421 10 0 60413 79200.00000 0 3935781.720 16928863.511 18697744.416 10 0 60413 80100.00000 0 3458044.263 19050707.349 16627481.830 10 0 60413 81000.00000 0 3191241.860 20933524.239 14234779.648 10 0 60413 81900.00000 0 3104355.815 22522831.556 11565810.247 10 0 60413 82800.00000 0 3157084.241 23773213.588 8672185.677 10 0 60413 83700.00000 0 3301756.082 24650126.422 5609973.080 10 0 60413 84600.00000 0 3485568.381 25131269.594 2438615.864 10 0 60413 85500.00000 0 3653052.776 25207464.817 -780219.135 99